Tracking 19847 objects as of 17-Sep-2019
HD Live streaming from Space Station
objects crossing your sky now

COSMOS 249 DEB *

Track COSMOS 249 DEB * now!
10-day predictions


NORAD ID: 3790
Int'l Code: 1968-091AX
Perigee: 506.2 km
Apogee: 1,774.1 km
Inclination: 63.0 °
Period: 108.0 minutes
Semi major axis: 7511 km
RCS: 0.0825 m2 (small)
Launch date: October 20, 1968
Source: Commonwealth of Independent States (former USSR) (CIS)
Launch site: TYURATAM MISSILE AND SPACE COMPLEX (TTMTR)

Note: This is SATELLITE DEBRIS
aabbcc
Your satellite tracking list
Your tracking list is empty




NASA's NSSDC Master Catalog

Two Line Element Set (TLE):
1  3790U 68091AX  19259.49189453 +.00000180 +00000-0 +75802-4 0  9997
2  3790 062.9692 226.9481 0844007 096.5353 273.2354 13.33656415437985
Source of the keplerian elements: AFSPC